Regional Weather Roundup
Issued by NWS

Home | Current Version | Previous Version | Text Only | Print | Product List | Glossary On
Versions: 1 2 3 4 5 6 7 8 9 10 11 12 13 14 15 16 17 18 19 20 21 22 23 24 25 26 27 28 29 30 31 32 33 34 35 36 37 38 39 40 41 42 43 44 45 46 47 48 49 50
000
ASUS45 KABQ 272010
RWRNM
NEW MEXICO REGIONAL WEATHER ROUNDUP
NATIONAL WEATHER SERVICE ALBUQUERQUE NM
200 PM MDT THU APR 27 2017

NOTE: "FAIR" MEANS FEW OR NO CLOUDS BELOW 12,000 FEET AGL WITH NO
       SIGNIFICANT WEATHER OR OBSTRUCTIONS TO VISION.

      THIS PRODUCT IS RELEASED AS TWO VERSIONS.  ONE VERSION NEAR
      THE TOP OF THE HOUR CONTAINING PRELIMINARY DATA FROM ALBUQUERQUE
      AND OTHER STATIONS.  A FINAL VERSION WITH ADDITIONAL DATA IS
      ISSUED ABOUT 10 MINUTES AFTER THE HOUR.

NMZ501-503-504-510>518-272100-
NORTHWEST PLATEAU/NORTHCENTRAL MOUNTAINS

CITY           SKY/WX    TMP DP  RH WIND       PRES   REMARKS
FARMINGTON     PTSUNNY   52  38  58 NW13      29.68F
LOS ALAMOS     CLOUDY    56  28  35 W14G22    29.70S
SANTA FE       PTSUNNY   63  32  31 W32G43    29.64F
TAOS             N/A     52  32  46 W26G33    29.67F
ANGEL FIRE     CLOUDY    37  30  77 W14G26    29.71R WCI  28

$$
NMZ402-403-502-505>509-272100-
WESTCENTRAL MOUNTAINS/SOUTHWEST MOUNTAINS

CITY           SKY/WX    TMP DP  RH WIND       PRES   REMARKS
GALLUP         PTSUNNY   64  25  22 W35G45    29.72S
GRANTS         FAIR      65  27  23 W29G36    29.71F
SILVER CITY    FAIR      73  31  21 W15G29    29.79F

$$
NMZ407-409-411-412-272100-
SOUTHERN DESERTS

CITY           SKY/WX    TMP DP  RH WIND       PRES   REMARKS
DEMING         FAIR      81  30  15 W29G41    29.72F
LAS CRUCES     FAIR      80  27  14 W25G43    29.73F
HOLLOMAN AFB   FAIR      82  30  15 W18G29    29.69F
ALAMOGORDO     FAIR      81  30  16 SW18G33   29.68F
T OR C         FAIR      81  28  14 W21G31    29.63F

$$
NMZ519>523-272100-
CENTRAL VALLEYS/CENTRAL HIGHLANDS

CITY           SKY/WX    TMP DP  RH WIND       PRES   REMARKS
ALBUQUERQUE    PTSUNNY   71  26  18 W28G41    29.62F
DOUBLE EAGLE   PTSUNNY   63  36  36 NW23G35   29.65F
MORIARTY ARPT  FAIR      70  29  21 W33G46    29.65F
CLINES CORNERS CLOUDY    58  30  34 NW29G41   29.66F
BELEN          PTSUNNY   73  25  16 W36       29.63F
SOCORRO        FAIR      79  28  15 NW18G25   29.61F

$$
NMZ524>526-539-540-272100-
SOUTHCENTRAL MOUNTAINS

CITY           SKY/WX    TMP DP  RH WIND       PRES   REMARKS
RUIDOSO        FAIR      68  27  21 W28G38    29.75F

$$
NMZ527>531-272100-
NORTHEAST HIGHLANDS/NORTHEAST PLAINS

CITY           SKY/WX    TMP DP  RH WIND       PRES   REMARKS
LAS VEGAS      PTSUNNY   56  29  35 W28G36    29.66R
RATON          FAIR      60  29  30 NW20G25   29.55R
CLAYTON        FAIR      66  28  24 W23G31    29.48F

$$
NMZ532>537-272100-
EASTCENTRAL PLAINS

CITY           SKY/WX    TMP DP  RH WIND       PRES   REMARKS
SANTA ROSA     FAIR      74  32  21 W31G40    29.54F
TUCUMCARI      FAIR      78  30  17 W37G47    29.47F
CANNON AFB     PTSUNNY   78  28  16 W30G40    29.52F
CLOVIS AIRPORT FAIR      81  32  17 W25G37    29.53F

$$
NMZ028-029-538-272100-
SOUTHEAST PLAINS

CITY           SKY/WX    TMP DP  RH WIND       PRES   REMARKS
ROSWELL        FAIR      87  29  12 W16G28    29.57F
ARTESIA        FAIR      86  32  14 SW26G36   29.55F
CARLSBAD       FAIR      88  29  12 SW23G36   29.57F
HOBBS          SUNNY     84  27  12 SW29G36   29.59F


$$



USA.gov is the U.S. government's official web portal to all federal, state and local government web resources and services.